SES-21

Last updated on Sat Sep 05 2026 00:03:06 GMT+0000 (Coordinated Universal Time)

1 53961U 22123B 26247.56999840 .00000062 00000+0 00000+0 0 9991 2 53961 0.0309 62.3807 0001024 95.0320 260.4758 1.00270346 8003
UTC large
Height (km)
Speed (km/s)
/
Latitude / Longitude
Inclination (degrees)
Orbital Period (minutes)
Azimuth
Elevation
Range (km)
Doppler Factor

Next 0 passes for location: London (51.5072 / 0.1276)

No passes found over London.
SES-21